User: anonymous   Login
Location: Santa Maria di Sala
(45.5070°N, 12.0300°E)
Time: 22:58:32
(UTC+01:00)
Language:

STRAND 1 - Orbit

View from above orbital plane
View from above orbital plane
View from above satellite
View from above satellite

Ground track
Ground track

The orbit data is extracted from the following two-line orbital elements,

1 39090U 13009E   24052.49581302  .00000630  00000-0  23191-3 0  9997
2 39090  98.3818 243.9888 0007955 237.6360 122.4057 14.35902661575516
Epoch (UTC): 21 February 2024 11:53:58
Eccentricity: 0.0007955
inclination: 98.3818°
perigee height: 766 km
apogee height: 778 km
right ascension of ascending node: 243.9888°
argument of perigee: 237.6360°
revolutions per day: 14.35902661
mean anomaly at epoch: 122.4057°
orbit number at epoch: 57551

The dashed part of the orbit path shows where the satellite is in the earth's shadow,  

DLR